Fort Riley, KS

4:29 AM CST on February 21, 2017 (GMT -0600)
Marshall Army Air Field

Weather History for KFRI - September, 2013

Change the Weather History Date:

Sunday, September 8, 2013

  Actual Average (KMHK) Record (KMHK)
Temperature  
Mean Temperature 88 °F -  
Max Temperature 101 °F 83 °F 104 °F (2013)
Min Temperature 74 °F 55 °F 44 °F (2011)
Cooling Degree Days 22    
Growing Degree Days 38 (Base 50)    
Moisture  
Dew Point 65 °F    
Average Humidity 49    
Maximum Humidity 74    
Minimum Humidity 28    
Precipitation  
Precipitation 0.00 in - - ()
Sea Level Pressure  
Sea Level Pressure 29.83 in    
Wind  
Wind Speed 7 mph (SSW)    
Max Wind Speed 15 mph    
Max Gust Speed 20 mph    
Visibility 10 miles    
Events      
Averages and records for this station are not official NWS values.
T = Trace of Precipitation, MM = Missing Value Source: NWS Daily Summary

Daily Weather History Graph

Daily Weather History Graph

Search for Another Location

Airport or City:

Trip Planner

Search our weather history database for the weather conditions in past years. The results will help you decide how hot, cold, wet, or windy it might be!

Date:

Astronomy

Sep. 08, 2013 Rise Set
Actual Time 7:02 AM CDT 7:46 PM CDT
Civil Twilight 6:35 AM CDT 8:13 PM CDT
Nautical Twilight 6:03 AM CDT 8:45 PM CDT
Astronomical Twilight 5:30 AM CDT 9:17 PM CDT
Moon 10:19 AM CDT (9/8) 9:24 PM CDT (9/8)
Length of Visible Light 13h 37m
Length of Day
12h 43m
Waxing Crescent, 11% of the Moon is Illuminated
Sep 8
Waxing Crescent
Sep 12
First Quarter
Sep 19
Full
Sep 26
Last Quarter
Oct 4
New

Hourly Weather History & Observations

Time (CDT) Temp. Heat Index Dew Point Humidity Pressure Visibility Wind Dir Wind Speed Gust Speed Precip Events Conditions
12:58 AM 83.1 °F 84.6 °F 64.4 °F 53% 29.87 in 10.0 mi SSW 8.1 mph - N/A   Clear
1:58 AM 80.1 °F 81.9 °F 64.9 °F 60% 29.87 in 10.0 mi SW 4.6 mph - N/A   Clear
2:58 AM 78.6 °F - 65.1 °F 63% 29.87 in 10.0 mi SW 3.5 mph - N/A   Clear
3:58 AM 76.8 °F - 65.5 °F 68% 29.88 in 10.0 mi South 4.6 mph - N/A   Clear
4:58 AM 77.5 °F - 64.8 °F 65% 29.87 in 10.0 mi SW 3.5 mph - N/A   Clear
5:58 AM 75.9 °F - 64.9 °F 69% 29.87 in 10.0 mi Variable 1.2 mph - N/A   Clear
6:58 AM 75.2 °F - 64.6 °F 69% 29.87 in 10.0 mi SW 3.5 mph - N/A   Clear
7:58 AM 74.7 °F - 65.8 °F 74% 29.87 in 10.0 mi WSW 3.5 mph - N/A   Clear
8:58 AM 79.0 °F - 66.2 °F 65% 29.86 in 10.0 mi WSW 2.3 mph - N/A   Clear
9:58 AM 84.2 °F 86.6 °F 66.4 °F 55% 29.86 in 10.0 mi SW 10.4 mph - N/A   Clear
10:58 AM 89.1 °F 92.1 °F 66.7 °F 48% 29.87 in 10.0 mi SW 10.4 mph - N/A   Clear
11:58 AM 93.0 °F 97.9 °F 68.7 °F 45% 29.86 in 10.0 mi SSW 8.1 mph - N/A   Clear
12:58 PM 95.7 °F 98.7 °F 65.3 °F 37% 29.84 in 10.0 mi SW 5.8 mph - N/A   Clear
1:58 PM 98.4 °F 103.8 °F 68.4 °F 37% 29.82 in 10.0 mi WNW 5.8 mph - N/A   Clear
2:58 PM 99.5 °F 100.9 °F 61.9 °F 29% 29.81 in 10.0 mi SSW 8.1 mph - N/A   Clear
3:58 PM 101.3 °F 103.3 °F 62.6 °F 28% 29.80 in 10.0 mi SSW 10.4 mph - N/A   Clear
4:58 PM 100.8 °F 102.4 °F 61.9 °F 28% 29.78 in 10.0 mi South 12.7 mph - N/A   Clear
5:58 PM 98.6 °F 100.0 °F 61.9 °F 30% 29.78 in 10.0 mi South 12.7 mph - N/A   Clear
6:58 PM 94.8 °F 96.2 °F 63.3 °F 35% 29.78 in 10.0 mi SSE 11.5 mph - N/A   Clear
7:58 PM 90.5 °F 91.8 °F 63.7 °F 41% 29.78 in 10.0 mi SSE 10.4 mph - N/A   Clear
8:58 PM 88.9 °F 89.7 °F 63.3 °F 42% 29.79 in 10.0 mi South 12.7 mph - N/A   Clear
9:58 PM 87.1 °F 87.8 °F 62.8 °F 44% 29.79 in 10.0 mi South 15.0 mph - N/A   Clear
10:58 PM 84.9 °F 85.9 °F 63.5 °F 48% 29.81 in 10.0 mi South 12.7 mph 19.6 mph N/A   Clear
11:58 PM 82.9 °F 83.8 °F 62.6 °F 50% 29.82 in 10.0 mi South 10.4 mph - N/A   Clear